Stations météo

réclame
Mon MeteoGroup
Lorient Lan Bihoue, France (7205): Température de l'air & dewpoint: 19.09.2018 09:00:00 - 25.09.2018 09:00:00 (CEST)Lorient Lan Bihoue, France (7205): Température de l'air 5cm: 19.09.2018 09:00:00 - 25.09.2018 09:00:00 (CEST)Lorient Lan Bihoue, France (7205): Température de l'air -20cm: 19.09.2018 09:00:00 - 25.09.2018 09:00:00 (CEST)Lorient Lan Bihoue, France (7205): Vitesse du vent & gusts: 19.09.2018 09:00:00 - 25.09.2018 09:00:00 (CEST)Lorient Lan Bihoue, France (7205): Direction du vent: 19.09.2018 09:00:00 - 25.09.2018 09:00:00 (CEST)Lorient Lan Bihoue, France (7205): reduced air pressure: 19.09.2018 09:00:00 - 25.09.2018 09:00:00 (CEST)Lorient Lan Bihoue, France (7205): visibility: 19.09.2018 09:00:00 - 25.09.2018 09:00:00 (CEST)Lorient Lan Bihoue, France (7205): Ensoleillement: 19.09.2018 09:00:00 - 25.09.2018 09:00:00 (CEST)Lorient Lan Bihoue, France (7205): Quantités de précipitations: 19.09.2018 09:00:00 - 25.09.2018 09:00:00 (CEST)
Date & Time tt [°C] td [°C] tt 5cm [°C] tt -20cm [°C] ff [km/h] ff [knt] fx [km/h] fx [knt] dd ppp [hPa] vv [km] sd [min] rr [mm]
25.09.2018 09:00:00 8,2 7,0 5,7 15,1 15 8 19 11 ENE 1036,2 42 33 0,0
25.09.2018 08:00:00 6,6 6,3 5,6 15,3 12 7 19 10 ENE 1036,0 38 0 0,0
25.09.2018 07:00:00 7,3 6,7 6,2 15,4 13 7 21 12 NE 1036,1 39 0 0,0
25.09.2018 06:00:00 7,6 6,8 6,3 15,6 12 6 17 9 ENE 1035,9 39 0 0,0
25.09.2018 05:00:00 8,2 7,1 7,2 15,7 14 7 21 11 ENE 1036,2 40 0 0,0
25.09.2018 04:00:00 8,5 7,7 7,3 15,9 14 8 23 13 ENE 1036,3 39 0 0,0
25.09.2018 03:00:00 8,9 8,0 7,9 16,0 15 8 22 12 ENE 1036,8 40 0 0,0
25.09.2018 02:00:00 9,5 7,8 8,4 16,0 16 8 25 14 ENE 1037,1 56 0 0,0
25.09.2018 01:00:00 9,5 8,3 8,1 16,2 14 8 21 11 NE 1037,1 58 0 0,0
25.09.2018 00:00:00 9,0 8,5 8,2 16,2 16 8 21 11 NNE 1037,0 52 0 0,0
24.09.2018 23:00:00 10,2 8,3 9,3 16,4 14 8 22 12 NNE 1036,9 58 0 0,0
24.09.2018 22:00:00 11,5 8,0 10,4 16,4 16 9 24 13 NNE 1036,8 59 0 0,0
24.09.2018 21:00:00 12,1 7,0 11,0 16,4 15 8 22 12 NNE 1036,4 60 0 0,0
24.09.2018 20:00:00 13,9 6,7 12,8 16,4 16 8 29 16 NNE 1036,0 59 43 0,0
24.09.2018 19:00:00 16,1 6,2 16,5 16,4 19 11 35 19 NNE 1035,5 53 53 0,0
24.09.2018 18:00:00 17,7 5,9 16,4 16,2 19 10 34 19 NNE 1035,4 59 52 0,0
24.09.2018 17:00:00 17,2 6,4 17,5 16,1 21 12 34 18 NE 1035,8 57 50 0,0
24.09.2018 16:00:00 17,5 5,1 17,2 15,9 19 11 37 20 NE 1036,2 44 31 0,0
24.09.2018 15:00:00 18,2 7,0 19,1 15,8 18 10 35 19 ENE 1036,6 49 56 0,0
24.09.2018 14:00:00 17,6 7,9 15,6 15,7 17 9 35 19 ENE 1036,9 43 60 0,0
24.09.2018 13:00:00 14,2 7,0 14,4 15,7 20 11 37 20 ENE 1037,8 54 26 0,0
24.09.2018 12:00:00 15,3 8,5 16,6 15,7 20 11 29 16 ENE 1037,9 56 55 0,0
24.09.2018 11:00:00 14,0 9,4 15,3 15,8 10 5 16 9 NE 1038,0 47 60 0,0
24.09.2018 10:00:00 11,6 9,3 10,9 15,9 8 5 13 7 NNE 1037,3 52 51 0,0
24.09.2018 09:00:00 8,7 8,6 6,1 16,0 9 5 15 8 NNE 1036,7 53 35 0,0
24.09.2018 08:00:00 6,6 6,6 5,9 16,2 10 5 18 10 NNE 1035,9 53 0 0,0
24.09.2018 07:00:00 8,0 7,9 6,7 16,3 11 6 19 11 N 1035,6 53 0 0,0
24.09.2018 06:00:00 7,1 7,1 6,4 16,4 12 6 17 9 N 1035,1 50 0 0,0
24.09.2018 05:00:00 7,6 7,2 6,9 16,6 11 6 22 12 NNE 1034,9 50 0 0,0
24.09.2018 04:00:00 7,8 7,0 6,9 16,8 11 6 21 11 N 1034,6 51 0 0,0
24.09.2018 03:00:00 8,1 7,3 6,9 17,0 10 6 18 10 N 1034,1 52 0 0,0
24.09.2018 02:00:00 8,2 8,1 6,4 17,1 11 6 18 10 N 1033,6 48 0 0,0
24.09.2018 01:00:00 8,0 8,0 6,6 17,3 7 4 13 7 WNW 1033,2 38 0 0,0
24.09.2018 00:00:00 9,0 8,7 7,4 17,4 10 5 19 10 NNW 1032,4 50 0 0,0
23.09.2018 23:00:00 8,5 8,5 7,0 17,6 10 5 13 7 NW 1031,7 53 0 0,0
23.09.2018 22:00:00 9,2 8,3 7,2 17,7 9 5 15 8 N 1030,7 55 0 0,0
23.09.2018 21:00:00 10,5 7,9 9,4 17,9 9 5 41 22 N 1029,6 56 0 0,0
23.09.2018 20:00:00 12,6 7,7 12,0 17,9 27 15 44 24 NNE 1028,1 58 47 0,0
23.09.2018 19:00:00 14,1 8,9 14,1 18,0 25 14 44 24 NNE 1026,4 60 21 0,0
23.09.2018 18:00:00 14,5 11,5 15,0 18,0 26 14 49 27 NNE 1025,1 55 0 0,0
23.09.2018 17:00:00 16,0 12,9 16,5 18,0 24 13 49 26 N 1023,6 53 6 0,0
23.09.2018 16:00:00 16,3 14,0 17,0 17,9 24 13 44 24 N 1022,1 59 6 0,0
23.09.2018 15:00:00 17,8 16,3 17,2 17,9 23 12 43 23 N 1020,4 60 25 0,0
23.09.2018 14:00:00 17,6 17,6 17,7 17,8 23 13 42 23 W 1019,2 2,7 3 0,4
23.09.2018 13:00:00 18,2 18,2 18,6 17,8 28 15 50 27 W 1018,5 14 10 0,0
23.09.2018 12:00:00 18,1 18,1 18,0 17,7 29 15 54 29 W 1017,8 13 3 0,0
23.09.2018 11:00:00 17,8 17,8 17,8 17,7 31 17 48 26 WSW 1017,3 7 0 0,2
23.09.2018 10:00:00 17,7 17,7 17,5 17,7 33 18 48 26 WSW 1017,2 4,1 0 0,0
23.09.2018 09:00:00 17,4 17,4 17,4 17,7 30 16 46 25 WSW 1016,6 1,2 0 0,2
23.09.2018 08:00:00 17,4 17,4 17,4 17,7 27 15 41 22 WSW 1016,8 0,5 0 0,0
23.09.2018 07:00:00 17,4 17,4 17,4 17,7 29 16 46 25 WSW 1017,0 0,9 0 0,2
23.09.2018 06:00:00 17,5 17,5 17,5 17,6 29 15 42 23 WSW 1017,1 1,3 0 0,2
23.09.2018 05:00:00 17,5 17,5 17,5 17,6 27 14 41 22 WSW 1017,4 0,4 0 0,4
23.09.2018 04:00:00 17,6 17,6 17,5 17,6 28 15 42 23 WSW 1017,8 1,1 0 0,8
23.09.2018 03:00:00 17,6 17,6 17,6 17,5 29 16 44 24 WSW 1018,2 0,6 0 0,6
23.09.2018 02:00:00 17,7 17,7 17,7 17,5 28 15 43 23 WSW 1018,3 0,6 0 0,6
23.09.2018 01:00:00 17,8 17,8 17,7 17,5 29 15 42 23 WSW 1018,2 0,4 0 0,2
23.09.2018 00:00:00 17,8 17,8 17,7 17,5 26 14 41 22 WSW 1018,0 0,4 0 0,2
22.09.2018 23:00:00 17,8 17,8 17,8 17,4 27 15 46 25 WSW 1018,0 0,7 0 0,2
22.09.2018 22:00:00 17,9 17,9 17,8 17,3 30 16 49 26 WSW 1018,0 0,8 0 0,2
22.09.2018 21:00:00 18,0 18,0 17,9 17,3 32 18 50 27 WSW 1017,5 1,0 0 0,2
22.09.2018 20:00:00 18,0 18,0 17,9 17,2 31 17 49 27 WSW 1017,3 2,5 0 0,0
22.09.2018 19:00:00 18,1 18,1 18,0 17,2 32 17 52 28 WSW 1017,0 1,4 0 0,0
22.09.2018 18:00:00 18,2 18,2 18,1 17,0 39 21 60 32 WSW 1016,8 2,4 0 0,0
22.09.2018 17:00:00 18,3 18,3 18,3 17,0 37 20 57 31 WSW 1017,2 5 0 0,0
22.09.2018 16:00:00 18,4 18,4 17,8 16,9 38 20 58 31 SW 1017,2 8 0 0,2
22.09.2018 15:00:00 17,8 17,8 16,3 16,9 29 16 45 24 SSW 1017,4 3,9 0 0,8
22.09.2018 14:00:00 16,0 16,0 15,6 16,9 22 12 38 21 S 1018,6 2,0 0 2,6
22.09.2018 13:00:00 15,4 15,4 15,0 16,8 23 12 38 21 S 1019,9 2,3 0 0,8
22.09.2018 12:00:00 15,0 15,0 14,3 16,8 23 12 36 20 S 1020,8 4,1 0 0,4
22.09.2018 11:00:00 16,1 13,8 15,2 16,8 20 11 36 19 S 1021,1 17 0 0,0
22.09.2018 10:00:00 15,6 13,8 14,4 16,9 22 12 33 18 S 1021,1 18 0 0,0
22.09.2018 09:00:00 14,8 12,8 12,1 16,9 14 7 20 11 SSE 1021,6 51 0 0,0
22.09.2018 08:00:00 12,3 12,3 11,5 16,9 6 3 12 7 ESE 1021,6 20 0 0,0
22.09.2018 07:00:00 11,7 11,7 11,2 17,0 5 3 7 4 E 1022,2 42 0 0,0
22.09.2018 06:00:00 11,4 11,4 10,9 17,1 6 3 8 4 ENE 1022,9 46 0 0,0
22.09.2018 05:00:00 11,1 11,1 10,1 17,2 3 1 5 3 E 1023,4 41 0 0,0
22.09.2018 04:00:00 10,4 10,4 8,5 17,2 3 2 5 3 ENE 1023,7 35 0 0,0
22.09.2018 03:00:00 9,6 9,6 7,8 17,4 4 2 5 3 NE 1023,9 20 0 0,0
22.09.2018 02:00:00 9,9 9,9 7,8 17,4 0 0 4 2 N 1024,0 28 0 0,0
22.09.2018 01:00:00 11,0 10,5 9,0 17,5 3 1 4 2 S 1024,5 41 0 0,0
22.09.2018 00:00:00 11,3 10,2 9,5 17,6 0 0 5 3 N 1024,7 44 0 0,0
21.09.2018 23:00:00 11,4 9,6 9,8 17,7 2 1 7 4 W 1024,2 42 0 0,0
21.09.2018 22:00:00 11,8 9,5 9,9 17,8 5 3 6 3 W 1024,2 14 0 0,0
21.09.2018 21:00:00 13,0 8,9 9,8 17,9 4 2 20 11 WNW 1023,4 50 0 0,0
21.09.2018 20:00:00 14,9 8,4 14,3 17,9 15 8 34 18 W 1022,8 49 26 0,0
21.09.2018 19:00:00 15,9 9,8 16,3 18,0 23 13 35 19 W 1021,7 52 12 0,0
21.09.2018 18:00:00 16,0 9,9 16,6 18,0 24 13 38 20 W 1021,9 41 12 0,0
21.09.2018 17:00:00 16,8 8,2 18,7 18,0 25 14 44 24 W 1021,6 50 23 0,0
21.09.2018 16:00:00 17,7 8,8 19,2 18,0 24 13 41 22 W 1021,1 20 18 0,0
21.09.2018 15:00:00 16,9 9,3 18,1 18,0 30 16 41 22 W 1020,6 20 28 0,0
21.09.2018 14:00:00 17,3 9,7 13,8 18,0 22 12 36 20 W 1020,2 51 29 0,2
21.09.2018 13:00:00 16,1 9,5 18,0 18,0 17 9 29 16 W 1019,5 35 30 0,0
21.09.2018 12:00:00 15,8 10,3 16,5 18,1 16 9 25 13 WNW 1018,8 20 45 0,0
21.09.2018 11:00:00 13,9 11,6 15,4 18,2 9 5 19 10 WNW 1018,5 43 13 0,0
21.09.2018 10:00:00 13,2 12,3 13,4 18,3 9 5 16 8 NW 1017,4 40 32 0,0
21.09.2018 09:00:00 11,6 11,6 10,0 18,5 6 3 11 6 WNW 1016,2 20 19 0,0
21.09.2018 08:00:00 11,3 11,3 10,4 18,6 9 5 19 10 WNW 1014,9 20 0 0,0
21.09.2018 07:00:00 12,3 12,1 11,5 18,8 11 6 32 18 WNW 1013,7 20 0 0,0
21.09.2018 06:00:00 12,8 12,5 12,0 18,9 13 7 24 13 WNW 1012,5 20 0 0,0
21.09.2018 05:00:00 13,8 13,8 13,1 19,0 14 7 31 17 WNW 1011,8 17 0 0,0
21.09.2018 04:00:00 14,4 14,4 14,0 19,1 15 8 34 18 W 1011,1 20 0 0,4
21.09.2018 03:00:00 15,4 15,4 14,8 19,1 25 14 87 47 WNW 1010,4 4,9 0 5,1
21.09.2018 02:00:00 18,2 18,2 17,8 19,1 39 21 66 35 SW 1008,9 3,5 0 0,6
21.09.2018 01:00:00 18,2 18,2 17,6 19,2 32 17 59 32 SSW 1009,3 10 0 0,2
21.09.2018 00:00:00 18,1 18,1 17,6 19,2 30 16 50 27 SSW 1010,4 7 0 0,4
20.09.2018 23:00:00 18,4 18,4 18,4 19,2 29 16 48 26 SW 1011,4 14 0 0,0
20.09.2018 22:00:00 18,5 18,5 18,4 19,3 29 15 51 27 SSW 1012,1 13 0 0,0
20.09.2018 21:00:00 18,6 18,6 18,4 19,3 26 14 43 23 SSW 1012,5 14 0 0,0
20.09.2018 20:00:00 18,7 18,7 18,8 19,3 23 13 44 24 SSW 1013,2 17 22 0,0
20.09.2018 19:00:00 19,1 18,8 19,7 19,2 26 14 50 27 SSW 1013,5 18 6 0,0
20.09.2018 18:00:00 20,4 18,9 20,3 19,2 25 13 42 23 SSW 1014,1 18 8 0,0
20.09.2018 17:00:00 19,8 18,3 20,9 19,1 23 13 47 25 SSW 1015,2 20 19 0,0
20.09.2018 16:00:00 20,5 18,1 22,8 19,0 28 15 48 26 SW 1015,6 18 1 0,0
20.09.2018 15:00:00 20,7 18,3 22,7 18,9 32 17 48 26 SW 1016,3 20 13 0,0
20.09.2018 14:00:00 21,2 18,0 23,0 18,8 26 14 45 25 SW 1016,4 19 31 0,0
20.09.2018 13:00:00 21,2 18,9 22,3 18,7 29 16 48 26 SW 1017,0 18 21 0,0
20.09.2018 12:00:00 20,8 18,7 21,8 18,7 26 14 44 24 SSW 1017,5 18 36 0,0
20.09.2018 11:00:00 20,1 19,3 19,6 18,7 23 13 38 20 SSW 1017,8 18 27 0,0
20.09.2018 10:00:00 18,8 18,8 17,8 18,7 19 10 32 17 SSW 1017,9 15 0 0,0
20.09.2018 09:00:00 17,8 17,8 17,4 18,8 19 10 29 16 SSW 1017,8 12 0 0,0
20.09.2018 08:00:00 17,7 17,7 17,3 18,8 19 11 33 18 SSW 1017,9 11 0 0,0
20.09.2018 07:00:00 17,9 17,9 17,3 18,8 19 10 35 19 SW 1018,0 11 0 0,0
20.09.2018 06:00:00 17,6 17,6 17,2 18,9 18 10 36 19 SW 1018,2 9 0 0,0
20.09.2018 05:00:00 17,7 17,7 17,3 18,9 22 12 36 19 SW 1018,4 11 0 0,0
20.09.2018 04:00:00 17,9 17,9 17,7 19,0 22 12 34 18 SW 1018,8 10 0 0,0
20.09.2018 03:00:00 18,0 18,0 17,5 19,0 20 11 31 17 SW 1019,0 9 0 0,0
20.09.2018 02:00:00 17,9 17,9 17,7 19,1 19 11 32 18 SW 1019,2 8 0 0,0
20.09.2018 01:00:00 18,0 18,0 17,7 19,1 20 11 34 18 SSW 1019,5 8 0 0,0
20.09.2018 00:00:00 18,0 18,0 17,5 19,1 18 10 29 16 SW 1019,8 8 0 0,0
19.09.2018 23:00:00 17,7 17,7 17,1 19,2 16 9 26 14 SW 1019,9 9 0 0,0
19.09.2018 22:00:00 17,8 17,8 17,5 19,2 19 10 29 15 SW 1019,7 11 0 0,0
19.09.2018 21:00:00 18,2 18,2 18,0 19,2 21 12 31 17 SW 1019,5 13 0 0,0
19.09.2018 20:00:00 18,4 18,4 18,4 19,2 21 11 35 19 WSW 1019,6 13 29 0,0
19.09.2018 19:00:00 19,5 18,7 20,3 19,1 26 14 45 24 SW 1019,5 14 48 0,0
19.09.2018 18:00:00 20,6 18,9 21,2 19,0 26 14 43 23 SW 1019,3 16 13 0,0
19.09.2018 17:00:00 20,1 18,8 21,4 18,9 25 13 46 25 SW 1019,7 16 0 0,0
19.09.2018 16:00:00 22,1 19,1 24,0 18,7 27 15 46 25 SW 1019,5 17 47 0,0
19.09.2018 15:00:00 22,1 18,1 25,0 18,6 30 16 47 26 SW 1019,5 17 57 0,0
19.09.2018 14:00:00 21,8 18,0 21,9 18,5 31 17 46 25 SW 1019,5 18 18 0,0
19.09.2018 13:00:00 20,4 18,3 22,2 18,4 28 15 44 24 SW 1019,4 18 21 0,0
19.09.2018 12:00:00 20,5 19,0 20,5 18,4 24 13 39 21 SW 1019,3 16 18 0,0
19.09.2018 11:00:00 20,4 19,1 20,5 18,4 26 14 40 22 SW 1019,0 17 53 0,0
19.09.2018 10:00:00 18,8 18,8 18,0 18,4 21 12 31 17 SW 1018,5 14 30 0,0
19.09.2018 09:00:00 17,9 17,9 16,9 18,5 18 10 30 16 SW 1017,8 11 36 0,0

tt = Température de l'air
td = dewpoint
tt 5cm = Température de l'air 5cm
tt -20cm = Température de l'air -20cm
ff = Vitesse du vent
fx = gusts
dd = Direction du vent
ppp = reduced air pressure
vv = visibility
sd = Ensoleillement
rr = Quantités de précipitations

stations d'obs. à proximité